Regional Weather Roundup
Issued by NWS

Home | Current Version | Previous Version | Text Only | Print | Product List | Glossary On
Versions: 1 2 3 4 5 6 7 8 9 10 11 12 13 14 15 16 17 18 19 20 21 22 23 24 25 26 27 28 29 30 31 32 33 34 35 36 37 38 39 40 41 42 43 44 45 46 47 48 49 50
027
ASUS44 KFWD 162315
RWRTX
NORTH TEXAS HOURLY WEATHER ROUNDUP
NATIONAL WEATHER SERVICE FORT WORTH TX
500 PM CST SAT DEC 16 2017

NOTE: "FAIR" INDICATES FEW OR NO CLOUDS BELOW 12,000 FEET WITH NO
SIGNIFICANT WEATHER AND/OR OBSTRUCTIONS TO VISIBILITY.

TXZ118-119-170000-
DALLAS/FORT WORTH METROPLEX

CITY           SKY/WX    TMP DP  RH WIND       PRES   REMARKS
DFW AIRPORT    LGT RAIN  48  43  82 S14       30.04R
DALLAS LOVE    LGT RAIN  47  41  80 S8        30.08R
FTW MEACHAM    LGT RAIN  48  42  80 S10       30.06R
DAL-EXECUTIVE  RAIN      46  42  86 S6        30.06R FOG
FTW-ALLIANCE   CLOUDY    47  41  80 S10       30.04R
FTW-NAS-JRB    CLOUDY    48  41  76 S13       30.07R
FTW-SPINKS     LGT RAIN  46  43  87 SE6       30.07S
ARLINGTON      LGT RAIN  45  42  89 SE9       30.05F
GRAND PRAIRIE  CLOUDY    48  37  66 S6        30.09R
ADDISON        RAIN      48  39  71 S17       30.06R
MESQUITE       LGT RAIN  46  39  76 SE12      30.09R
LANCASTER      LGT RAIN  46  42  88 SE5       30.08S
$$

TXZ091>094-102>105-117-120-121-131>134-170000-
NORTH CENTRAL TEXAS

CITY           SKY/WX    TMP DP  RH WIND       PRES   REMARKS
SHRMAN/DENISON LGT RAIN  49  40  73 S15       30.05R
GAINESVILLE    LGT RAIN  47  39  72 S15       30.05R
BOWIE          DRIZZLE   50  37  60 SE12G21   29.99R
BRIDGEPORT     CLOUDY    50  37  60 S17G23    30.03R
DECATUR        CLOUDY    47  40  77 S17G24    30.00S
DENTON         LGT RAIN  46  41  82 S15       30.04R WCI  40
MCKINNEY       LGT RAIN  48  41  76 S14       30.06R
BONHAM         LGT RAIN  51  33  49 S14G21    30.06R
GREENVILLE     DRIZZLE   54  36  50 S20       30.09R
ROCKWALL       LGT RAIN  49  38  67 S15       30.08R
TERRELL        LGT RAIN  47  40  76 S8        30.10R
WAXAHACHIE     LGT RAIN  45  45 100 CALM      30.08F
CLEBURNE       DRIZZLE   45  45 100 S6        30.07S
GRANBURY       DRIZZLE   48  42  80 SE12      30.06R
$$

TXZ083>090-098>101-113>116-127>130-139>142-154-155-170000-
WESTERN NORTH TEXAS

CITY           SKY/WX    TMP DP  RH WIND       PRES   REMARKS
WICHITA FALLS  CLOUDY    54  27  35 S26       29.94R
WF-KICKAPOO    CLOUDY    55  28  36 S20G26    29.98R
VERNON         CLOUDY    56  18  21 S23G30    29.91R
ABILENE        CLOUDY    42  40  92 S15       29.93F WCI  34
ABILENE-DYESS  CLOUDY    43  39  85 S14       29.93S WCI  36
GRAHAM         DRIZZLE   49  36  62 S7G18     29.96F
BRECKENRIDGE   CLOUDY    51  32  48 S15       29.97F
CISCO          CLOUDY    48  34  57 S15       29.98S
EASTLAND       LGT RAIN  47  36  65 S13       29.98F
RANGER         CLOUDY    47  36  67 S13       29.99S
MINERAL WELLS  LGT RAIN  46  38  73 S14G22    30.01S WCI  40
STEPHENVILLE   CLOUDY    44  39  82 S6        30.04S
COMANCHE       LGT RAIN  46  40  81 S6        30.01F
BROWNWOOD      LGT RAIN  45  39  81 SE7       29.99F
COLEMAN        LGT RAIN  45  40  84 S8        29.97F
$$

TXZ143>147-156>162-174-175-170000-
CENTRAL TEXAS

CITY           SKY/WX    TMP DP  RH WIND       PRES   REMARKS
WACO           RAIN      46  43  89 SE7       30.07S FOG
WACO-TSTC      RAIN      45  45 100 SE6       30.07F
WACO-MCGREGOR  LGT RAIN  45  43  93 SE6       30.06S
HILLSBORO      DRIZZLE   46  43  90 S9        30.06R
CORSICANA      LGT RAIN  45  43  93 SE5       30.08F FOG
MEXIA          LGT RAIN  45  42  92 E8        30.06F
HEARNE         RAIN      45  45 100 CALM      30.07F
CAMERON        RAIN      46  44  92 CALM      30.07S
TEMPLE         LGT RAIN  45  43  93 SE6       30.06F
KILLEEN        CLOUDY    45  43  93 SE7       30.02F
KILLEEN-SKYLRK CLOUDY    45  43  93 SE7       30.04F
FORT HOOD      CLOUDY    43  42  95 SE6       30.00S WCI  40
GATESVILLE     CLOUDY    45  45 100 CALM      30.06F
HAMILTON       RAIN      46  41  83 SE9       30.02F
LAMPASAS       CLOUDY    44  42  94 SE6       30.00F
$$

TXZ095>097-106>112-122>126-135>138-148>153-164>167-170000-
EAST TEXAS

CITY           SKY/WX    TMP DP  RH WIND       PRES   REMARKS
PARIS          CLOUDY    55  29  36 SE8       30.06F
SULPHUR SPRNGS CLOUDY    55  31  40 S9        30.10R
MOUNT PLEASANT PTCLDY    54  34  47 S8        30.11R
GILMER         LGT RAIN  52  34  50 S8        30.12R
MINEOLA        LGT RAIN  50  37  62 S10       30.12R
TYLER          LGT RAIN  47  42  83 S6        30.12R
LONGVIEW       LGT RAIN  50  43  77 SW5       30.12R
MARSHALL       CLOUDY    51  32  48 S3        30.13R
ATHENS         RAIN      43  41  93 E3        30.09F
PALESTINE      LGT SNOW  47  44  91 NE3       30.12F
JACKSONVILLE   RAIN      45  44  95 CALM      30.13F
HENDERSON      LGT RAIN  47  42  85 CALM      30.14R
CENTER         CLOUDY    50  35  56 CALM      30.13R
NACOGDOCHES    LGT RAIN  46  45  96 NW3       30.13R
LUFKIN         LGT RAIN  50  40  68 N3        30.11R
$$

SUPPLEMENTAL OBSERVATIONS (NWS FORT WORTH AREA)

CITY           SKY/WX    TMP DP  RH WIND       PRES   REMARKS
DENISON DAM      N/A     52  39  62 S12         N/A
CADDO GRASSLND   N/A     55  30  38 S10         N/A
PAT MAYSE LAKE   N/A     55  21  26 SE12        N/A
GREENVILLE       N/A     54  32  43 S10         N/A
CEDAR HILL       N/A     45  41  87 SE3G12      N/A
LBJ GRASSLAND    N/A     46  39  76 SE14        N/A
POSSUM KINGDOM   N/A     48  32  53 SE14        N/A
GRANBURY         N/A     46  41  81 SE12        N/A
MCGREGOR         N/A     45  39  81 SE6         N/A
TEMPLE           N/A     45  39  81 SE5         N/A
ATHENS           N/A     46  43  87 SE5         N/A
$$

SUPPLEMENTAL OBSERVATIONS (NWS NORMAN AREA)

CITY           SKY/WX    TMP DP  RH WIND       PRES   REMARKS
GOODLETT         N/A     52  25  34 S24G31    29.86R
ODELL            N/A     53  28  37 S23       29.91R
CROWELL          N/A     49  36  61 S26       29.92R
KNOX CITY        N/A     46  39  76 S13       29.93S WCI  40
SEYMOUR          N/A     48  38  68 S12       29.93S
MILLERS CREEK    N/A     46  36  66 SW10G18     N/A
$$

SUPPLEMENTAL OBSERVATIONS (NWS SAN ANGELO AREA)

CITY           SKY/WX    TMP DP  RH WIND       PRES   REMARKS
WEINERT          N/A     47  35  62 S18       29.94R
HASKELL          N/A     47  35  63 S15       29.93S
THROCKMORTON     N/A     51  32  49 SE12      29.95S
STAMFORD         N/A     46  37  71 S21       29.94S WCI  38
CLYDE            N/A     41  39  93 S14       29.93F WCI  34
HAMBY            N/A     45  37  76 S16         N/A  WCI  37
IVIE RESERVOIR   N/A     46  39  76 SE10        N/A
COLORADO BEND    N/A     45  41  87 S7          N/A
$$

SUPPLEMENTAL OBSERVATIONS (NWS SHREVEPORT AREA)

CITY           SKY/WX    TMP DP  RH WIND       PRES   REMARKS
CLARKSVILLE      N/A     55  30  38 S8          N/A
TEXARKANA        N/A     55  34  44 SE3         N/A
LINDEN           N/A     54  34  47 SE3         N/A
CADDO LAKE       N/A     54  34  47 SE1         N/A
GILMER           N/A     52  32  46 S6          N/A
HENDERSON        N/A     46  41  81 S1          N/A
LUFKIN           N/A     46  43  87 MISG        N/A
N SABINE NF      N/A     50  39  66 MISG        N/A
S SABINE NF      N/A     52  39  62 E2          N/A
$$

SUPPLEMENTAL OBSERVATIONS ARE A COLLECTION OF AUTOMATED INSTRUMENTS
THAT ARE MAINTAINED BY A VARIETY OF FEDERAL AND STATE AGENCIES.
CERTAIN ELEMENTS...SUCH AS HUMIDITY VALUES AND SUSTAINED WIND
SPEEDS...MAY BE APPROXIMATED.





USA.gov is the U.S. government's official web portal to all federal, state and local government web resources and services.